Simultaneous Nadir Overpasses (SNOs) Predictions

Prediction of SNOs between AQUA and METOP-A Satellite Orbit:

Table of predicted SNOs for the next 14.0 days since TLE Epoch: 9/4/2021
Index Date (AQUA) Time (AQUA) Lat,Lon (AQUA) SZA (AQUA ) Date (METOP-A) Time (METOP-A) Lat,Lon (METOP-A) SZA (METOP-A ) Distance(km) Time Diff (sec)
1 09/06/2021 05:57:20 -77.71,-106.67 108.15 09/06/2021 05:56:42 -77.71,-106.64 108.14 0.89 38
2 09/06/2021 06:46:48 77.76, 60.75 71.93 09/06/2021 06:47:21 77.75, 60.87 71.91 2.99 33
3 09/09/2021 01:31:35 -77.72, -40.27 107.10 09/09/2021 01:31:01 -77.73, -40.20 107.08 2.40 34
4 09/09/2021 02:21:03 77.77, 127.12 72.99 09/09/2021 02:21:40 77.77, 127.29 72.96 3.98 37
5 09/11/2021 21:05:51 -77.73, 26.09 106.03 09/11/2021 21:05:22 -77.71, 26.03 106.04 3.24 29
6 09/11/2021 21:55:18 77.75,-166.34 74.01 09/11/2021 21:56:00 77.78,-166.30 74.03 3.69 42
7 09/14/2021 16:40:07 -77.76, 92.43 104.94 09/14/2021 16:39:42 -77.72, 92.44 104.97 3.73 25
8 09/14/2021 17:29:34 77.78,-100.02 75.10 09/14/2021 17:30:20 77.79, -99.90 75.10 3.33 46
9 09/17/2021 12:14:21 -77.74, 158.93 103.89 09/17/2021 12:14:01 -77.74, 158.84 103.88 2.26 20



Historial Predications of SNOs between AQUA and METOP-A
